Location: Shenandoah County Park
(38.9356°N, 78.4524°W)
Time: 18:20:46
(UTC-04:00)

Explorer 11/Cluster Stage 4 - Pass Details

Date: 25 February 2024
Orbit: 465 x 1219 km, 28.8° (Epoch: 21 April)

Event Time Altitude Azimuth Distance (km) Brightness Sun altitude
Rises 23:02:40 0° 208° (SSW) 4,046 - -54.6°
Reaches altitude 10° 23:06:42 10° 189° (S) 3,143 - -55.0°
Maximum altitude 23:11:22 17° 153° (SSE) 2,684 - -55.5°
Drops below altitude 10° 23:16:01 10° 117° (ESE) 3,139 - -56.0°
Sets 23:20:01 0° 99° (E) 4,039 - -56.5°
